Location: Krakow
(50.0830°N, 19.9170°E)
Time: 19:47:44
(UTC+01:00)

Altair - Pass Details

Date: 04 December 2023
Orbit: 1501 x 1682 km, 47.2° (Epoch: 02 March)

Event Time Altitude Azimuth Distance (km) Brightness Sun altitude
Rises 12:40:49 0° 280° (W) 4,730 10.2 16.0°
Reaches altitude 10° 12:43:57 10° 278° (W) 3,724 9.7 15.9°
Maximum altitude 12:53:07 63° 200° (SSW) 1,663 8.5 15.4°
Drops below altitude 10° 13:02:05 10° 122° (ESE) 3,648 9.7 14.9°
Sets 13:05:07 0° 120° (ESE) 4,629 10.1 14.7°
